Location: Perryvale
(54.4667°N, 113.3833°W)
Time: 20:49:47
(UTC+00:00)

Transit 2A - Pass Details

Date: 27 May 2024
Orbit: 592 x 959 km, 66.7° (Epoch: 19 June)

Event Time Altitude Azimuth Distance (km) Brightness Sun altitude
Rises 06:58:08 0° 247° (WSW) 3,027 8.9 -13.8°
Reaches altitude 10° 07:00:27 10° 255° (WSW) 2,166 8.3 -13.9°
Maximum altitude 07:05:10 43° 327° (NNW) 1,060 7.2 -13.9°
Drops below altitude 10° 07:10:24 10° 38° (NE) 2,410 9.3 -14.0°
Sets 07:13:07 0° 45° (NE) 3,408 10.0 -14.0°
